Back to catalog

STARLINK-38110

AliveCommunicationsVLEO
NORAD 100021·PAYLOAD·🇺🇸 United States

Launched Jul 14, 2026 from Vandenberg Space Force Base

Loading…

Next Passes (next 24 hours)

TLE

FreshSource: Space-Track

Epoch: Sep 14, 2026, 22:54 UTC

1 A0021U 26160W   26257.95455728 -.01337919  00000-0 -15944-1 0  9994
2 A0021  70.0013 210.4031 0003556 273.0790  86.9996 15.63904538 11120

Track STARLINK-38110 in real time with AllMySat

Download on the App Store